| time (UTC) | temp F | wind direction | speed MPH | gust MPH | rain 1hr in | rain 24hr in | rain mn in | humidity % | barometer mb |
| 20260901020040 | 73 | 149 | 0.0 | 0.0 | 0.00 | 0.44 | 0.44 | 94 | 1017.7 |
| 20260901014638 | 73 | 149 | 0.0 | 0.0 | 0.00 | 0.44 | 0.44 | 94 | 1017.7 |
| 20260901013037 | 73 | 149 | 0.0 | 0.0 | 0.00 | 0.44 | 0.44 | 94 | 1017.8 |
| 20260901011540 | 73 | 149 | 0.0 | 0.0 | 0.00 | 0.44 | 0.44 | 94 | 1017.8 |
| 20260901010051 | 73 | 149 | 0.0 | 0.0 | 0.00 | 0.44 | 0.44 | 94 | 1017.9 |
| 20260901004536 | 73 | 149 | 0.0 | 0.0 | 0.00 | 0.44 | 0.44 | 94 | 1018.0 |
| 20260901003038 | 73 | 150 | 0.0 | 0.0 | 0.00 | 0.44 | 0.44 | 94 | 1017.9 |
| 20260901001537 | 73 | 149 | 0.0 | 0.0 | 0.00 | 0.44 | 0.44 | 94 | 1017.7 |
| 20260901000034 | 73 | 149 | 0.0 | 0.0 | 0.00 | 0.44 | 0.44 | 94 | 1017.5 |
| 20260831234534 | 73 | 149 | 0.0 | 0.0 | 0.01 | 0.44 | 0.44 | 94 | 1017.7 |
| 20260831233041 | 74 | 150 | 0.0 | 0.0 | 0.01 | 0.44 | 0.44 | 94 | 1017.7 |
| 20260831231537 | 74 | 149 | 0.0 | 0.0 | 0.06 | 0.44 | 0.44 | 93 | 1017.7 |
| 20260831230032 | 74 | 149 | 0.0 | 0.0 | 0.09 | 0.44 | 0.44 | 94 | 1017.7 |
| 20260831224532 | 74 | 93 | 0.0 | 1.0 | 0.08 | 0.43 | 0.43 | 93 | 1017.9 |
| 20260831223031 | 74 | 82 | 0.0 | 1.0 | 0.08 | 0.43 | 0.43 | 93 | 1018.0 |
| 20260831221536 | 74 | 110 | 0.0 | 1.0 | 0.03 | 0.38 | 0.38 | 93 | 1018.1 |
| 20260831220029 | 74 | 78 | 0.0 | 2.0 | 0.00 | 0.35 | 0.35 | 93 | 1018.2 |
| 20260831214529 | 74 | 74 | 0.0 | 2.0 | 0.14 | 0.35 | 0.35 | 93 | 1018.4 |
| 20260831213028 | 74 | 138 | 0.0 | 3.0 | 0.25 | 0.35 | 0.35 | 93 | 1018.0 |
| 20260831211530 | 74 | 117 | 1.0 | 4.0 | 0.26 | 0.35 | 0.35 | 93 | 1017.8 |
| 20260831210027 | 74 | 124 | 0.0 | 3.0 | 0.35 | 0.35 | 0.35 | 92 | 1018.1 |
| 20260831204526 | 76 | 126 | 0.0 | 4.0 | 0.17 | 0.17 | 0.17 | 89 | 1018.1 |
| 20260831203025 | 78 | 148 | 1.0 | 2.0 | 0.10 | 0.10 | 0.10 | 88 | 1017.6 |
| 20260831201526 | 81 | 133 | 1.0 | 3.0 | 0.09 | 0.09 | 0.09 | 80 | 1017.2 |
| 20260831200024 | 86 | 279 | 0.0 | 3.0 | 0.00 | 0.00 | 0.00 | 75 | 1017.0 |
| 20260831194524 | 87 | 290 | 0.0 | 1.0 | 0.00 | 0.00 | 0.00 | 71 | 1017.0 |
| 20260831193033 | 88 | 342 | 0.0 | 1.0 | 0.00 | 0.00 | 0.00 | 65 | 1017.1 |
| 20260831191522 | 90 | 335 | 0.0 | 1.0 | 0.00 | 0.00 | 0.00 | 64 | 1017.2 |
| 20260831190020 | 91 | 232 | 0.0 | 1.0 | 0.00 | 0.00 | 0.00 | 63 | 1017.2 |
| 20260831184519 | 90 | 194 | 0.0 | 1.0 | 0.00 | 0.00 | 0.00 | 65 | 1017.3 |
| 20260831183018 | 91 | 143 | 0.0 | 1.0 | 0.00 | 0.00 | 0.00 | 66 | 1017.6 |
| 20260831181517 | 90 | 95 | 0.0 | 2.0 | 0.00 | 0.00 | 0.00 | 66 | 1017.6 |
| 20260831180020 | 89 | 84 | 0.0 | 1.0 | 0.00 | 0.00 | 0.00 | 67 | 1017.6 |
| 20260831174518 | 90 | 154 | 0.0 | 1.0 | 0.00 | 0.00 | 0.00 | 68 | 1017.7 |
| 20260831173017 | 89 | 152 | 0.0 | 2.0 | 0.00 | 0.00 | 0.00 | 68 | 1017.7 |
| 20260831171516 | 88 | 88 | 0.0 | 2.0 | 0.00 | 0.00 | 0.00 | 70 | 1017.9 |
| 20260831170023 | 89 | 332 | 0.0 | 2.0 | 0.00 | 0.00 | 0.00 | 67 | 1017.9 |
| 20260831164516 | 88 | 116 | 0.0 | 1.0 | 0.00 | 0.00 | 0.00 | 68 | 1018.1 |
| 20260831163006 | 88 | 171 | 0.0 | 1.0 | 0.00 | 0.00 | 0.00 | 74 | 1018.1 |
| 20260831161503 | 86 | 80 | 0.0 | 2.0 | 0.00 | 0.00 | 0.00 | 72 | 1018.3 |
| 20260831160100 | 85 | 74 | 0.0 | 2.0 | 0.00 | 0.00 | 0.00 | 74 | 1018.3 |
| 20260831154559 | 84 | 76 | 0.0 | 2.0 | 0.00 | 0.00 | 0.00 | 77 | 1018.2 |
| 20260831153059 | 84 | 122 | 0.0 | 2.0 | 0.00 | 0.00 | 0.00 | 78 | 1018.3 |
| 20260831151605 | 83 | 80 | 0.0 | 1.0 | 0.00 | 0.00 | 0.00 | 81 | 1018.3 |
| 20260831150051 | 82 | 78 | 1.0 | 3.0 | 0.00 | 0.00 | 0.00 | 81 | 1018.4 |
| 20260831144550 | 82 | 70 | 0.0 | 2.0 | 0.00 | 0.00 | 0.00 | 82 | 1018.4 |
| 20260831143048 | 81 | 75 | 0.0 | 2.0 | 0.00 | 0.00 | 0.00 | 84 | 1018.5 |
| 20260831141546 | 81 | 72 | 0.0 | 2.0 | 0.00 | 0.00 | 0.00 | 85 | 1018.4 |
| 20260831140051 | 81 | 86 | 1.0 | 2.0 | 0.00 | 0.00 | 0.00 | 87 | 1018.4 |
| 20260831134542 | 80 | 9 | 0.0 | 3.0 | 0.00 | 0.00 | 0.00 | 88 | 1018.6 |
| 20260831133040 | 79 | 336 | 0.0 | 1.0 | 0.00 | 0.00 | 0.00 | 90 | 1018.6 |
| 20260831131534 | 78 | 163 | 0.0 | 0.0 | 0.00 | 0.00 | 0.00 | 92 | 1018.6 |
| 20260831130030 | 77 | 175 | 0.0 | 0.0 | 0.00 | 0.00 | 0.00 | 93 | 1018.6 |
| 20260831124528 | 76 | 175 | 0.0 | 1.0 | 0.00 | 0.00 | 0.00 | 94 | 1018.6 |
| 20260831123030 | 75 | 177 | 0.0 | 0.0 | 0.00 | 0.00 | 0.00 | 96 | 1018.5 |
| 20260831121529 | 74 | 177 | 0.0 | 0.0 | 0.00 | 0.00 | 0.00 | 96 | 1018.3 |
| 20260831120018 | 73 | 177 | 0.0 | 0.0 | 0.00 | 0.00 | 0.00 | 96 | 1018.2 |
| 20260831114520 | 73 | 177 | 0.0 | 0.0 | 0.00 | 0.00 | 0.00 | 95 | 1018.2 |
| 20260831113017 | 72 | 177 | 0.0 | 0.0 | 0.00 | 0.00 | 0.00 | 95 | 1018.2 |
| 20260831111516 | 71 | 177 | 0.0 | 0.0 | 0.00 | 0.00 | 0.00 | 95 | 1018.2 |
| 20260831110015 | 71 | 178 | 0.0 | 0.0 | 0.00 | 0.00 | 0.00 | 94 | 1018.1 |
| 20260831104521 | 71 | 177 | 0.0 | 0.0 | 0.00 | 0.00 | 0.00 | 95 | 1018.0 |
| 20260831103014 | 71 | 177 | 0.0 | 0.0 | 0.00 | 0.00 | 0.00 | 95 | 1017.8 |
| 20260831101514 | 71 | 177 | 0.0 | 0.0 | 0.00 | 0.00 | 0.00 | 94 | 1017.7 |
| 20260831100022 | 71 | 177 | 0.0 | 0.0 | 0.00 | 0.00 | 0.00 | 94 | 1017.5 |
| 20260831094514 | 71 | 177 | 0.0 | 0.0 | 0.00 | 0.00 | 0.00 | 94 | 1017.6 |
| 20260831093014 | 72 | 177 | 0.0 | 0.0 | 0.00 | 0.00 | 0.00 | 95 | 1017.5 |
| 20260831091511 | 72 | 177 | 0.0 | 0.0 | 0.00 | 0.00 | 0.00 | 94 | 1017.5 |
| 20260831090010 | 72 | 177 | 0.0 | 0.0 | 0.00 | 0.00 | 0.00 | 94 | 1017.5 |
| 20260831084509 | 72 | 177 | 0.0 | 0.0 | 0.00 | 0.00 | 0.00 | 95 | 1017.5 |
| 20260831083016 | 72 | 177 | 0.0 | 0.0 | 0.00 | 0.00 | 0.00 | 94 | 1017.4 |
| 20260831081508 | 72 | 177 | 0.0 | 0.0 | 0.00 | 0.00 | 0.00 | 94 | 1017.4 |
| 20260831080019 | 72 | 178 | 0.0 | 0.0 | 0.00 | 0.00 | 0.00 | 94 | 1017.5 |
| 20260831074506 | 72 | 177 | 0.0 | 0.0 | 0.00 | 0.00 | 0.00 | 94 | 1017.7 |
| 20260831073012 | 72 | 177 | 0.0 | 0.0 | 0.00 | 0.00 | 0.00 | 94 | 1017.8 |
| 20260831071504 | 72 | 177 | 0.0 | 0.0 | 0.00 | 0.00 | 0.00 | 94 | 1017.9 |
| 20260831070006 | 72 | 177 | 0.0 | 0.0 | 0.00 | 0.00 | 0.00 | 94 | 1018.0 |
| 20260831064503 | 72 | 177 | 0.0 | 0.0 | 0.00 | 0.00 | 0.00 | 94 | 1017.9 |
| 20260831063001 | 72 | 177 | 0.0 | 0.0 | 0.00 | 0.00 | 0.00 | 93 | 1017.9 |
| 20260831061600 | 73 | 177 | 0.0 | 0.0 | 0.00 | 0.00 | 0.00 | 93 | 1017.9 |
| 20260831060058 | 73 | 177 | 0.0 | 0.0 | 0.00 | 0.00 | 0.00 | 93 | 1017.9 |
| 20260831054558 | 73 | 177 | 0.0 | 0.0 | 0.00 | 0.00 | 0.00 | 93 | 1017.9 |
| 20260831053057 | 73 | 177 | 0.0 | 0.0 | 0.00 | 0.00 | 0.00 | 93 | 1018.1 |
| 20260831051556 | 74 | 177 | 0.0 | 0.0 | 0.00 | 0.00 | 0.00 | 93 | 1018.0 |
| 20260831050052 | 74 | 177 | 0.0 | 0.0 | 0.00 | 0.00 | 0.00 | 93 | 1018.0 |
| 20260831044554 | 74 | 177 | 0.0 | 0.0 | 0.00 | 0.00 | 0.00 | 93 | 1018.1 |
| 20260831043045 | 74 | 177 | 0.0 | 0.0 | 0.00 | 0.00 | 0.00 | 93 | 1018.2 |
| 20260831041548 | 74 | 177 | 0.0 | 0.0 | 0.00 | 0.00 | 0.00 | 93 | 1018.1 |
| 20260831040035 | 74 | 177 | 0.0 | 0.0 | 0.00 | 0.00 | 0.00 | 93 | 1018.1 |
| 20260831034534 | 74 | 177 | 0.0 | 0.0 | 0.00 | 0.00 | 0.00 | 93 | 1018.4 |
| 20260831033034 | 74 | 177 | 0.0 | 0.0 | 0.00 | 0.00 | 0.00 | 92 | 1018.4 |
| 20260831031534 | 74 | 177 | 0.0 | 0.0 | 0.00 | 0.00 | 0.00 | 92 | 1018.7 |
| 20260831030033 | 74 | 177 | 0.0 | 0.0 | 0.00 | 0.00 | 0.00 | 92 | 1018.9 |
| 20260831024534 | 74 | 177 | 0.0 | 0.0 | 0.00 | 0.00 | 0.00 | 91 | 1018.9 |
| 20260831023032 | 75 | 179 | 0.0 | 0.0 | 0.00 | 0.00 | 0.00 | 91 | 1018.9 |
| 20260831021537 | 75 | 182 | 0.0 | 1.0 | 0.00 | 0.00 | 0.00 | 91 | 1019.1 |